KD8BMB Weather Reports


Display with metric or nautical units.
time (UTC)temp
F
wind
direction
speed
MPH
gust
MPH
rain 1hr
in
rain 24hr
in
rain mn
in
humidity
%
barometer
mb
20260505003708 70 294 0.0 0.0 0.00 0.00 0.00 47 996.8
20260505003206 71 243 0.0 0.0 0.00 0.00 0.00 44 997.1
20260505002702 71 269 0.0 0.0 0.00 0.00 0.00 44 997.0
20260505002159 72 222 0.0 0.0 0.00 0.00 0.00 44 997.1
20260505001656 72 281 0.0 1.0 0.00 0.00 0.00 43 996.9
20260505001154 73 289 3.0 5.0 0.00 0.00 0.00 42 997.0
20260505000651 73 269 1.0 2.0 0.00 0.00 0.00 42 997.1
20260505000149 73 293 3.0 5.0 0.00 0.00 0.00 42 997.1
20260504235644 73 258 2.0 2.0 0.00 0.00 0.00 44 997.3
20260504235141 73 283 1.0 2.0 0.00 0.00 0.00 44 997.1
20260504234639 73 242 2.0 2.0 0.00 0.00 0.00 44 997.1
20260504234136 74 268 4.0 5.0 0.00 0.00 0.00 44 997.2
20260504233631 74 205 3.0 5.0 0.00 0.00 0.00 43 997.0
20260504233127 75 243 6.0 8.0 0.00 0.00 0.00 41 997.1
20260504232626 75 225 4.0 5.0 0.00 0.00 0.00 42 997.2
20260504232122 75 276 4.0 5.0 0.00 0.00 0.00 42 997.5
20260504231619 75 246 7.0 10.0 0.00 0.00 0.00 42 997.2
20260504231115 75 272 3.0 5.0 0.00 0.00 0.00 44 997.4
20260504230611 76 237 1.0 1.0 0.00 0.00 0.00 43 997.3
20260504230110 76 275 4.0 6.0 0.00 0.00 0.00 42 997.3
20260504225608 76 296 10.0 11.0 0.00 0.00 0.00 41 997.4
20260504225104 76 253 7.0 10.0 0.00 0.00 0.00 40 997.3
20260504224601 76 225 3.0 3.0 0.00 0.00 0.00 39 997.5
20260504224058 76 263 1.0 2.0 0.00 0.00 0.00 40 997.7
20260504223555 77 255 4.0 6.0 0.00 0.00 0.00 38 997.6
20260504223050 77 298 2.0 2.0 0.00 0.00 0.00 39 997.7
20260504222547 77 243 5.0 6.0 0.00 0.00 0.00 38 997.7
20260504222045 76 267 1.0 2.0 0.00 0.00 0.00 37 997.9
20260504221542 76 188 10.0 15.0 0.00 0.00 0.00 37 997.8
20260504221039 76 357 7.0 8.0 0.00 0.00 0.00 36 998.1
20260504220535 77 249 1.0 3.0 0.00 0.00 0.00 39 998.1
20260504220032 77 256 2.0 2.0 0.00 0.00 0.00 37 998.1
20260504215529 76 245 4.0 8.0 0.00 0.00 0.00 37 998.3
20260504215026 76 226 7.0 9.0 0.00 0.00 0.00 37 998.1
20260504214522 77 309 4.0 7.0 0.00 0.00 0.00 36 998.3
20260504214018 78 129 2.0 3.0 0.00 0.00 0.00 36 998.2
20260504213515 77 132 5.0 8.0 0.00 0.00 0.00 35 998.3
20260504213013 78 259 1.0 1.0 0.00 0.00 0.00 35 998.3
20260504212508 77 232 2.0 5.0 0.00 0.00 0.00 34 998.3
20260504212006 76 227 2.0 3.0 0.00 0.00 0.00 35 998.4
20260504211502 75 193 1.0 2.0 0.00 0.00 0.00 36 998.6
20260504211000 75 208 5.0 8.0 0.00 0.00 0.00 35 998.5
20260504210456 75 282 4.0 6.0 0.00 0.00 0.00 35 998.7
20260504205953 75 217 0.0 1.0 0.00 0.00 0.00 36 998.6
20260504205451 76 217 4.0 6.0 0.00 0.00 0.00 33 998.7
20260504204949 76 281 2.0 5.0 0.00 0.00 0.00 33 998.4
20260504204447 76 297 11.0 13.0 0.00 0.00 0.00 33 998.8
20260504203946 76 257 3.0 3.0 0.00 0.00 0.00 33 998.4
20260504203443 76 299 0.0 1.0 0.00 0.00 0.00 34 998.5
20260504202939 77 289 11.0 16.0 0.00 0.00 0.00 31 998.5
20260504202436 77 211 1.0 2.0 0.00 0.00 0.00 31 998.6
20260504201932 77 243 4.0 6.0 0.00 0.00 0.00 31 998.6
20260504201430 76 238 5.0 8.0 0.00 0.00 0.00 31 998.5
20260504200927 77 219 5.0 8.0 0.00 0.00 0.00 32 998.6
20260504200424 76 283 10.0 14.0 0.00 0.00 0.00 31 998.8
20260504195921 76 280 0.0 1.0 0.00 0.00 0.00 32 998.9
20260504195416 76 140 10.0 14.0 0.00 0.00 0.00 30 998.7
20260504194913 76 220 4.0 6.0 0.00 0.00 0.00 32 999.0
20260504194409 76 274 1.0 3.0 0.00 0.00 0.00 31 999.1
20260504193905 75 293 3.0 5.0 0.00 0.00 0.00 32 998.9
20260504193403 76 231 6.0 8.0 0.00 0.00 0.00 31 999.6
20260504192901 76 245 12.0 14.0 0.00 0.00 0.00 30 999.0
20260504192358 76 311 5.0 9.0 0.00 0.00 0.00 31 999.1
20260504191857 76 320 11.0 15.0 0.00 0.00 0.00 30 999.4
20260504191354 76 303 4.0 8.0 0.00 0.00 0.00 31 999.2
20260504190849 76 294 6.0 10.0 0.00 0.00 0.00 31 999.4
20260504190346 76 226 3.0 8.0 0.00 0.00 0.00 31 999.4
20260504185842 76 240 5.0 7.0 0.00 0.00 0.00 31 999.4
20260504185339 76 237 5.0 7.0 0.00 0.00 0.00 32 999.5
20260504184835 77 317 0.0 0.0 0.00 0.00 0.00 32 999.6
20260504184332 77 188 3.0 5.0 0.00 0.00 0.00 32 999.5
20260504183827 76 215 1.0 5.0 0.00 0.00 0.00 32 999.7
20260504183325 75 187 8.0 11.0 0.00 0.00 0.00 32 1000.0
20260504182822 76 302 6.0 8.0 0.00 0.00 0.00 31 999.9
20260504182320 75 237 7.0 11.0 0.00 0.00 0.00 31 999.8
20260504181817 75 210 13.0 17.0 0.00 0.00 0.00 31 999.7
20260504181314 75 257 5.0 14.0 0.00 0.00 0.00 32 999.8
20260504180812 75 256 6.0 9.0 0.00 0.00 0.00 34 1000.3
20260504180305 75 260 3.0 6.0 0.00 0.00 0.00 34 1000.2
20260504175803 74 306 7.0 9.0 0.00 0.00 0.00 33 1000.1
20260504175259 74 254 7.0 10.0 0.00 0.00 0.00 33 1000.3
20260504174758 74 216 8.0 10.0 0.00 0.00 0.00 32 1000.1
20260504174255 74 279 10.0 13.0 0.00 0.00 0.00 33 1000.3
20260504173751 74 201 9.0 15.0 0.00 0.00 0.00 33 1000.4
20260504173248 74 247 2.0 3.0 0.00 0.00 0.00 33 1000.6
20260504172745 75 226 5.0 7.0 0.00 0.00 0.00 33 1000.6
20260504172242 75 70 0.0 0.0 0.00 0.00 0.00 34 1000.4
20260504171738 74 165 3.0 5.0 0.00 0.00 0.00 36 1000.8
20260504171235 74 252 7.0 10.0 0.00 0.00 0.00 34 1000.8
20260504170732 74 206 4.0 5.0 0.00 0.00 0.00 39 1000.8
20260504170229 74 225 3.0 3.0 0.00 0.00 0.00 38 1000.9
20260504160148 70 258 1.0 1.0 0.00 0.00 0.00 47 1002.0
20260504151115 67 251 0.0 1.0 0.00 0.00 0.00 57 1002.7
20260504150613 66 184 2.0 5.0 0.00 0.00 0.00 59 1002.9
20260504150110 66 280 5.0 7.0 0.00 0.00 0.00 58 1002.9
20260504141038 62 205 2.0 2.0 0.00 0.00 0.00 63 1003.4
20260504140535 62 262 1.0 2.0 0.00 0.00 0.00 65 1003.2
20260504130459 58 317 2.0 2.0 0.00 0.00 0.00 70 1003.5
20260504110346 48 293 1.0 1.0 0.00 0.00 0.00 86 1003.6
20260504100304 47 229 0.0 0.0 0.00 0.00 0.00 86 1004.0
20260504081657 49 313 0.0 0.0 0.00 0.00 0.00 81 1004.5
20260504081153 49 199 1.0 1.0 0.00 0.00 0.00 81 1004.7
20260504080650 49 188 0.0 0.0 0.00 0.00 0.00 80 1004.4
20260504080146 49 269 0.0 0.0 0.00 0.00 0.00 80 1004.6
20260504070114 50 220 1.0 2.0 0.00 0.00 0.00 77 1005.4
20260504050503 51 306 0.0 0.0 0.00 0.00 0.00 73 1006.5
20260504050000 51 256 2.0 2.0 0.00 0.00 0.00 72 1006.5
20260504045455 51 327 0.0 1.0 0.00 0.00 0.00 72 1006.6
20260504044952 51 133 2.0 5.0 0.00 0.00 0.00 72 1006.7
20260504044449 51 218 1.0 2.0 0.00 0.00 0.00 73 1006.6
20260504043946 51 212 3.0 3.0 0.00 0.00 0.00 72 1006.5
20260504043443 51 184 1.0 1.0 0.00 0.00 0.00 73 1006.3
20260504042941 51 201 2.0 3.0 0.00 0.00 0.00 72 1006.5
20260504042437 51 86 1.0 3.0 0.00 0.00 0.00 71 1006.4
20260504041934 51 268 3.0 5.0 0.00 0.00 0.00 72 1006.4
20260504041430 51 132 5.0 7.0 0.00 0.00 0.00 72 1006.5
20260504040926 51 216 2.0 2.0 0.00 0.00 0.00 72 1006.6
20260504040424 51 240 4.0 9.0 0.00 0.00 0.00 72 1006.7
20260504035920 51 213 0.0 1.0 0.00 0.00 0.00 72 1006.6
20260504035418 51 88 1.0 1.0 0.00 0.00 0.00 71 1006.8
20260504034914 51 115 3.0 3.0 0.00 0.00 0.00 72 1006.9
20260504034412 51 180 3.0 3.0 0.00 0.00 0.00 72 1007.0
20260504033909 52 236 3.0 3.0 0.00 0.00 0.00 71 1006.8
20260504033406 51 181 4.0 6.0 0.00 0.00 0.00 71 1007.0
20260504032902 51 207 1.0 2.0 0.00 0.00 0.00 71 1006.9
20260504032359 51 202 1.0 2.0 0.00 0.00 0.00 70 1006.8
20260504031856 52 187 0.0 0.0 0.00 0.00 0.00 70 1007.0
20260504031353 52 184 1.0 3.0 0.00 0.00 0.00 70 1007.0
20260504030849 52 61 1.0 1.0 0.00 0.00 0.00 70 1007.1
20260504030347 52 193 4.0 5.0 0.00 0.00 0.00 69 1007.3
20260504025843 52 248 1.0 2.0 0.00 0.00 0.00 70 1007.2
20260504025340 52 128 2.0 3.0 0.00 0.00 0.00 70 1007.1
20260504024837 52 234 1.0 1.0 0.00 0.00 0.00 70 1007.1
20260504024333 52 182 2.0 2.0 0.00 0.00 0.00 70 1007.4
20260504023830 52 265 1.0 1.0 0.00 0.00 0.00 69 1007.1
20260504023327 52 217 2.0 3.0 0.00 0.00 0.00 68 1007.2
20260504022822 52 234 2.0 2.0 0.00 0.00 0.00 69 1007.3
20260504022320 52 317 2.0 2.0 0.00 0.00 0.00 69 1007.3
20260504021816 52 147 1.0 2.0 0.00 0.00 0.00 68 1007.6
20260504021314 53 265 0.0 0.0 0.00 0.00 0.00 68 1007.5
20260504020810 52 180 7.0 8.0 0.00 0.00 0.00 68 1007.4
20260504020308 53 201 2.0 2.0 0.00 0.00 0.00 68 1007.4
20260504015803 53 273 2.0 3.0 0.00 0.00 0.00 67 1007.4
20260504015300 53 183 1.0 2.0 0.00 0.00 0.00 67 1007.6
20260504014755 53 267 2.0 2.0 0.00 0.00 0.00 66 1007.3
20260504014252 53 333 4.0 9.0 0.00 0.00 0.00 66 1007.5
20260504013749 53 244 1.0 2.0 0.00 0.00 0.00 66 1007.1
20260504013247 53 265 7.0 8.0 0.00 0.00 0.00 65 1007.3
20260504012743 54 309 0.0 2.0 0.00 0.00 0.00 65 1007.5
20260504012241 54 281 0.0 1.0 0.00 0.00 0.00 66 1007.4
20260504011738 54 202 3.0 5.0 0.00 0.00 0.00 65 1007.3
20260504011235 54 255 3.0 5.0 0.00 0.00 0.00 65 1007.5
20260504010731 54 233 8.0 11.0 0.00 0.00 0.00 64 1007.4
20260504010226 54 200 4.0 5.0 0.00 0.00 0.00 64 1007.6
20260504005723 55 291 4.0 5.0 0.00 0.00 0.00 64 1007.5
20260504005220 55 278 3.0 5.0 0.00 0.00 0.00 64 1007.4
20260504004718 55 211 5.0 8.0 0.00 0.00 0.00 64 1007.5
20260504004215 55 267 4.0 6.0 0.00 0.00 0.00 64 1007.5